| time (UTC) | temp C | wind direction | speed KPH | gust KPH | rain 1hr cm | rain 24hr cm | rain mn cm | humidity % | barometer mb |
| 20260510065614 | 14 | 260 | 0.0 | 0.0 | 0.00 | 14.48 | 14.48 | 95 | 1009.4 |
| 20260510065114 | 13 | 255 | 0.0 | 0.0 | 0.00 | 14.48 | 14.48 | 95 | 1009.3 |
| 20260510064614 | 13 | 255 | 0.0 | 0.0 | 0.00 | 14.48 | 14.48 | 95 | 1009.4 |
| 20260510064114 | 13 | 254 | 0.0 | 0.0 | 0.00 | 14.48 | 14.48 | 95 | 1009.3 |
| 20260510063614 | 13 | 258 | 0.0 | 0.0 | 0.00 | 14.48 | 14.48 | 95 | 1009.1 |
| 20260510063114 | 13 | 247 | 0.0 | 0.0 | 0.00 | 14.48 | 14.48 | 95 | 1009.1 |
| 20260510062613 | 13 | 256 | 0.0 | 0.0 | 0.00 | 14.48 | 14.48 | 95 | 1009.1 |
| 20260510062113 | 13 | 247 | 0.0 | 0.0 | 0.00 | 14.48 | 14.48 | 95 | 1009.1 |
| 20260510061613 | 13 | 247 | 0.0 | 0.0 | 0.00 | 14.48 | 14.48 | 95 | 1009.3 |
| 20260510061113 | 13 | 251 | 0.0 | 0.0 | 0.00 | 14.48 | 14.48 | 95 | 1009.1 |
| 20260510060613 | 13 | 261 | 0.0 | 0.0 | 0.00 | 14.48 | 14.48 | 95 | 1009.2 |
| 20260510060113 | 13 | 256 | 0.0 | 0.0 | 0.00 | 14.48 | 14.48 | 95 | 1009.0 |
| 20260510055613 | 13 | 252 | 0.0 | 0.0 | 0.00 | 14.48 | 14.48 | 95 | 1009.1 |
| 20260510055113 | 13 | 257 | 0.0 | 0.0 | 0.00 | 14.48 | 14.48 | 95 | 1009.4 |
| 20260510054613 | 13 | 244 | 0.0 | 0.0 | 0.00 | 14.48 | 14.48 | 95 | 1009.2 |
| 20260510054113 | 13 | 256 | 0.0 | 0.0 | 0.00 | 14.48 | 14.48 | 95 | 1009.1 |
| 20260510053613 | 13 | 268 | 0.0 | 0.0 | 0.00 | 14.48 | 14.48 | 95 | 1009.2 |
| 20260510053113 | 13 | 252 | 0.0 | 0.0 | 0.00 | 14.48 | 14.48 | 95 | 1009.3 |
| 20260510052613 | 13 | 249 | 0.0 | 0.0 | 0.00 | 14.48 | 14.48 | 95 | 1009.1 |
| 20260510052113 | 13 | 249 | 0.0 | 0.0 | 0.00 | 14.48 | 14.48 | 95 | 1009.2 |
| 20260510051613 | 13 | 243 | 0.0 | 0.0 | 4.57 | 14.48 | 14.48 | 95 | 1009.3 |
| 20260510051113 | 13 | 247 | 0.0 | 0.0 | 4.57 | 14.48 | 14.48 | 95 | 1009.1 |
| 20260510050613 | 13 | 242 | 0.0 | 0.0 | 0.00 | 13.72 | 13.72 | 95 | 1009.2 |
| 20260510050113 | 13 | 251 | 0.0 | 0.0 | 0.00 | 13.72 | 13.72 | 95 | 1009.1 |
| 20260510045613 | 13 | 260 | 0.0 | 0.0 | 0.00 | 13.72 | 13.72 | 95 | 1009.2 |
| 20260510045112 | 13 | 260 | 0.0 | 0.0 | 4.57 | 13.72 | 13.72 | 94 | 1009.2 |
| 20260510044612 | 13 | 261 | 0.0 | 0.0 | 9.14 | 13.72 | 13.72 | 94 | 1009.3 |
| 20260510044112 | 13 | 264 | 0.0 | 0.0 | 4.57 | 12.93 | 12.93 | 94 | 1009.2 |
| 20260510043613 | 13 | 275 | 0.0 | 0.0 | 4.57 | 12.19 | 12.19 | 94 | 1009.1 |
| 20260510043112 | 13 | 261 | 0.0 | 0.0 | 4.57 | 12.19 | 12.19 | 94 | 1009.2 |
| 20260510042612 | 13 | 255 | 0.0 | 0.0 | 0.00 | 11.43 | 11.43 | 94 | 1009.1 |
| 20260510042112 | 13 | 255 | 0.0 | 0.0 | 0.00 | 11.43 | 11.43 | 94 | 1009.3 |
| 20260510041612 | 13 | 255 | 0.0 | 0.0 | 0.00 | 11.43 | 11.43 | 94 | 1009.3 |
| 20260510041112 | 13 | 255 | 0.0 | 0.0 | 0.00 | 11.43 | 11.43 | 94 | 1009.4 |
| 20260510040612 | 13 | 255 | 0.0 | 0.0 | 0.00 | 11.43 | 11.43 | 94 | 1009.0 |
| 20260510040112 | 13 | 247 | 0.0 | 0.0 | 0.00 | 11.43 | 11.43 | 94 | 1009.3 |
| 20260510035612 | 13 | 266 | 0.0 | 0.0 | 4.57 | 11.43 | 11.43 | 94 | 1009.3 |
| 20260510035112 | 13 | 263 | 0.0 | 0.0 | 9.14 | 11.43 | 11.43 | 94 | 1009.4 |
| 20260510034612 | 13 | 260 | 0.0 | 0.0 | 4.57 | 10.67 | 10.67 | 94 | 1009.6 |
| 20260510034112 | 13 | 255 | 0.0 | 0.0 | 4.57 | 9.91 | 9.91 | 94 | 1009.4 |
| 20260510033612 | 13 | 255 | 0.0 | 0.0 | 4.57 | 9.91 | 9.91 | 94 | 1009.4 |
| 20260510033112 | 13 | 254 | 0.0 | 0.0 | 0.00 | 9.14 | 9.14 | 94 | 1009.6 |
| 20260510032611 | 13 | 247 | 0.0 | 0.0 | 0.00 | 9.14 | 9.14 | 94 | 1009.6 |
| 20260510032111 | 13 | 246 | 0.0 | 0.0 | 0.00 | 9.14 | 9.14 | 94 | 1009.9 |
| 20260510031611 | 13 | 246 | 0.0 | 0.0 | 0.00 | 9.14 | 9.14 | 94 | 1009.8 |
| 20260510031111 | 13 | 249 | 0.0 | 0.0 | 0.00 | 9.14 | 9.14 | 94 | 1009.8 |
| 20260510030611 | 13 | 260 | 0.0 | 0.0 | 0.00 | 9.14 | 9.14 | 94 | 1009.8 |
| 20260510030111 | 13 | 260 | 0.0 | 0.0 | 0.00 | 9.14 | 9.14 | 94 | 1010.0 |
| 20260510025611 | 13 | 247 | 0.0 | 0.0 | 0.00 | 9.14 | 9.14 | 94 | 1009.8 |
| 20260510025111 | 13 | 264 | 0.0 | 0.0 | 0.00 | 9.14 | 9.14 | 94 | 1009.9 |
| 20260510024611 | 13 | 260 | 0.0 | 0.0 | 0.00 | 9.14 | 9.14 | 94 | 1009.9 |
| 20260510024111 | 13 | 245 | 0.0 | 0.0 | 0.00 | 9.14 | 9.14 | 94 | 1010.2 |
| 20260510023611 | 13 | 256 | 0.0 | 0.0 | 4.57 | 9.14 | 9.14 | 94 | 1010.2 |
| 20260510023111 | 13 | 256 | 0.0 | 0.0 | 9.14 | 9.14 | 9.14 | 94 | 1010.3 |
| 20260510022611 | 13 | 256 | 0.0 | 0.0 | 9.14 | 8.38 | 8.38 | 94 | 1010.5 |
| 20260510022111 | 13 | 256 | 0.0 | 0.0 | 4.57 | 7.62 | 7.62 | 94 | 1010.5 |
| 20260510021611 | 13 | 259 | 0.0 | 0.0 | 0.00 | 6.86 | 6.86 | 94 | 1010.5 |
| 20260510021111 | 13 | 263 | 0.0 | 0.0 | 0.00 | 6.86 | 6.86 | 94 | 1010.7 |
| 20260510020611 | 13 | 252 | 0.0 | 0.0 | 0.00 | 6.86 | 6.86 | 94 | 1010.4 |
| 20260510020111 | 13 | 254 | 0.0 | 0.0 | 0.00 | 6.86 | 6.86 | 94 | 1010.3 |
| 20260510015611 | 13 | 254 | 0.0 | 0.0 | 0.00 | 6.86 | 6.86 | 94 | 1010.3 |
| 20260510015111 | 13 | 250 | 0.0 | 0.0 | 0.00 | 6.86 | 6.86 | 94 | 1010.3 |
| 20260510014610 | 13 | 260 | 0.0 | 0.0 | 0.00 | 6.86 | 6.86 | 93 | 1010.5 |
| 20260510014110 | 13 | 260 | 0.0 | 0.0 | 0.00 | 6.86 | 6.86 | 93 | 1010.3 |
| 20260510013610 | 13 | 256 | 0.0 | 0.0 | 0.00 | 6.86 | 6.86 | 93 | 1010.3 |
| 20260510013110 | 13 | 260 | 0.0 | 0.0 | 0.00 | 6.86 | 6.86 | 93 | 1010.4 |
| 20260510012610 | 13 | 261 | 0.0 | 0.0 | 0.00 | 6.86 | 6.86 | 93 | 1010.6 |
| 20260510012110 | 13 | 264 | 0.0 | 0.0 | 0.00 | 6.86 | 6.86 | 93 | 1010.5 |
| 20260510011610 | 13 | 264 | 0.0 | 0.0 | 0.00 | 6.86 | 6.86 | 93 | 1010.3 |
| 20260510011110 | 13 | 262 | 0.0 | 0.0 | 0.00 | 6.86 | 6.86 | 93 | 1010.2 |
| 20260510010610 | 13 | 262 | 0.0 | 0.0 | 4.57 | 6.86 | 6.86 | 93 | 1010.5 |
| 20260510010110 | 13 | 262 | 0.0 | 0.0 | 0.00 | 6.10 | 6.10 | 93 | 1010.4 |
| 20260510005610 | 13 | 250 | 0.0 | 0.0 | 0.00 | 6.10 | 6.10 | 93 | 1010.5 |
| 20260510005110 | 13 | 255 | 0.0 | 0.0 | 0.00 | 6.10 | 6.10 | 93 | 1010.7 |
| 20260510004610 | 13 | 257 | 0.0 | 0.0 | 0.00 | 6.10 | 6.10 | 93 | 1010.7 |
| 20260510004110 | 13 | 256 | 0.0 | 0.0 | 0.00 | 6.10 | 6.10 | 93 | 1010.6 |
| 20260510003610 | 13 | 279 | 0.0 | 0.0 | 0.00 | 6.10 | 6.10 | 92 | 1010.6 |
| 20260510003110 | 13 | 261 | 0.0 | 0.0 | 0.00 | 6.10 | 6.10 | 92 | 1010.7 |
| 20260510002610 | 13 | 254 | 0.0 | 0.0 | 0.00 | 6.10 | 6.10 | 92 | 1010.5 |
| 20260510002110 | 13 | 255 | 0.0 | 0.0 | 4.57 | 6.10 | 6.10 | 92 | 1010.5 |
| 20260510001609 | 13 | 243 | 0.0 | 0.0 | 4.57 | 6.10 | 6.10 | 92 | 1010.5 |
| 20260510001109 | 13 | 260 | 0.0 | 0.0 | 0.00 | 5.33 | 5.33 | 92 | 1010.8 |
| 20260510000609 | 13 | 259 | 0.0 | 0.0 | 0.00 | 5.33 | 5.33 | 92 | 1010.6 |
| 20260510000109 | 13 | 254 | 0.0 | 0.0 | 0.00 | 5.33 | 5.33 | 92 | 1010.4 |
| 20260509235609 | 13 | 247 | 0.0 | 0.0 | 0.00 | 5.33 | 5.33 | 92 | 1010.5 |
| 20260509235109 | 13 | 250 | 0.0 | 0.0 | 0.00 | 5.33 | 5.33 | 91 | 1010.5 |
| 20260509234609 | 13 | 259 | 0.0 | 0.0 | 0.00 | 5.33 | 5.33 | 91 | 1010.5 |
| 20260509234109 | 13 | 265 | 0.0 | 0.0 | 4.57 | 5.33 | 5.33 | 91 | 1010.6 |
| 20260509233609 | 13 | 264 | 0.0 | 0.0 | 4.57 | 5.33 | 5.33 | 91 | 1010.5 |
| 20260509233109 | 14 | 261 | 0.0 | 0.0 | 4.57 | 4.57 | 4.57 | 90 | 1010.6 |
| 20260509232609 | 14 | 261 | 0.0 | 0.0 | 9.14 | 4.57 | 4.57 | 90 | 1010.7 |
| 20260509232109 | 14 | 263 | 0.0 | 0.0 | 9.14 | 3.81 | 3.81 | 90 | 1010.8 |
| 20260509231609 | 14 | 269 | 0.0 | 0.0 | 9.14 | 3.05 | 3.05 | 89 | 1010.9 |
| 20260509231109 | 14 | 252 | 0.0 | 0.0 | 4.57 | 2.29 | 2.29 | 89 | 1010.9 |
| 20260509230609 | 14 | 251 | 0.0 | 0.0 | 0.00 | 1.52 | 1.52 | 89 | 1010.8 |
| 20260509230109 | 14 | 253 | 0.0 | 0.0 | 4.57 | 1.52 | 1.52 | 89 | 1011.1 |
| 20260509225609 | 14 | 261 | 0.0 | 0.0 | 0.00 | 0.76 | 0.76 | 88 | 1011.2 |
| 20260509225109 | 14 | 262 | 0.0 | 0.0 | 0.00 | 0.76 | 0.76 | 87 | 1011.3 |
| 20260509224609 | 15 | 263 | 0.0 | 0.0 | 0.00 | 0.76 | 0.76 | 87 | 1011.2 |
| 20260509224109 | 15 | 263 | 0.0 | 0.0 | 0.00 | 0.76 | 0.76 | 87 | 1011.3 |
| 20260509223608 | 15 | 257 | 0.0 | 0.0 | 4.57 | 0.76 | 0.76 | 86 | 1011.4 |
| 20260509223108 | 15 | 258 | 0.0 | 0.0 | 0.00 | 0.00 | 0.00 | 86 | 1011.1 |
| 20260509222608 | 15 | 271 | 0.0 | 0.0 | 0.00 | 0.00 | 0.00 | 85 | 1011.3 |
| 20260509222108 | 15 | 282 | 0.0 | 0.0 | 0.00 | 0.00 | 0.00 | 86 | 1011.3 |
| 20260509221608 | 15 | 260 | 0.0 | 0.0 | 0.00 | 0.00 | 0.00 | 85 | 1011.1 |
| 20260509221108 | 15 | 242 | 0.0 | 0.0 | 0.00 | 0.00 | 0.00 | 85 | 1011.1 |
| 20260509220608 | 15 | 263 | 0.0 | 0.0 | 0.00 | 0.00 | 0.00 | 85 | 1011.2 |
| 20260509220108 | 16 | 286 | 0.0 | 0.0 | 0.00 | 0.00 | 9.91 | 85 | 1010.8 |
| 20260509215608 | 16 | 282 | 0.0 | 0.0 | 0.00 | 0.00 | 9.91 | 84 | 1011.2 |
| 20260509215108 | 16 | 282 | 0.0 | 0.0 | 0.00 | 0.00 | 9.91 | 82 | 1011.2 |
| 20260509214608 | 16 | 259 | 0.0 | 0.0 | 0.00 | 0.00 | 9.91 | 81 | 1011.2 |
| 20260509214108 | 16 | 261 | 0.0 | 0.0 | 0.00 | 0.00 | 9.91 | 80 | 1011.2 |
| 20260509213608 | 17 | 287 | 0.0 | 0.0 | 0.00 | 0.00 | 9.91 | 78 | 1011.2 |
| 20260509213108 | 17 | 261 | 0.0 | 0.0 | 0.00 | 0.00 | 9.91 | 76 | 1011.3 |
| 20260509212608 | 17 | 258 | 0.0 | 0.0 | 0.00 | 0.00 | 9.91 | 73 | 1011.0 |
| 20260509212108 | 17 | 67 | 0.0 | 0.0 | 0.00 | 0.00 | 9.91 | 69 | 1011.0 |
| 20260509211608 | 17 | 300 | 0.0 | 0.0 | 0.00 | 0.00 | 9.91 | 69 | 1010.8 |
| 20260509211108 | 18 | 265 | 0.0 | 0.0 | 0.00 | 0.00 | 9.91 | 68 | 1010.8 |
| 20260509210608 | 18 | 272 | 0.0 | 0.0 | 0.00 | 0.00 | 9.91 | 68 | 1011.0 |
| 20260509210107 | 18 | 272 | 0.0 | 0.0 | 0.00 | 0.00 | 9.91 | 65 | 1010.8 |
| 20260509205608 | 18 | 263 | 0.0 | 0.0 | 0.00 | 0.00 | 9.91 | 64 | 1010.8 |
| 20260509205107 | 18 | 342 | 0.0 | 0.0 | 0.00 | 0.00 | 9.91 | 63 | 1010.8 |
| 20260509204607 | 18 | 356 | 0.0 | 0.0 | 0.00 | 0.00 | 9.91 | 62 | 1011.1 |
| 20260509204107 | 18 | 313 | 0.0 | 0.0 | 0.00 | 0.00 | 9.91 | 62 | 1010.8 |
| 20260509203607 | 18 | 46 | 4.8 | 11.3 | 0.00 | 0.00 | 9.91 | 61 | 1010.7 |
| 20260509203107 | 18 | 358 | 0.0 | 0.0 | 0.00 | 0.00 | 9.91 | 61 | 1010.7 |
| 20260509202607 | 18 | 284 | 0.0 | 0.0 | 0.00 | 0.00 | 9.91 | 61 | 1010.8 |
| 20260509202107 | 18 | 276 | 0.0 | 0.0 | 0.00 | 0.00 | 9.91 | 62 | 1010.7 |
| 20260509201607 | 18 | 278 | 0.0 | 0.0 | 0.00 | 0.00 | 9.91 | 62 | 1010.7 |
| 20260509201107 | 17 | 262 | 0.0 | 0.0 | 0.00 | 0.00 | 9.91 | 61 | 1010.9 |
| 20260509200607 | 17 | 295 | 0.0 | 0.0 | 0.00 | 0.00 | 9.91 | 61 | 1010.7 |
| 20260509200107 | 17 | 241 | 0.0 | 0.0 | 0.00 | 0.00 | 9.91 | 61 | 1010.5 |
| 20260509195607 | 17 | 68 | 0.0 | 11.3 | 0.00 | 0.00 | 9.91 | 61 | 1010.7 |
| 20260509195107 | 17 | 68 | 0.0 | 11.3 | 0.00 | 0.00 | 9.91 | 61 | 1010.7 |
| 20260509194607 | 17 | 342 | 0.0 | 0.0 | 0.00 | 0.00 | 9.91 | 62 | 1010.5 |
| 20260509194107 | 17 | 35 | 0.0 | 0.0 | 0.00 | 0.00 | 9.91 | 63 | 1010.7 |
| 20260509193607 | 18 | 349 | 0.0 | 11.3 | 0.00 | 0.00 | 9.91 | 62 | 1010.7 |
| 20260509193106 | 18 | 270 | 0.0 | 0.0 | 0.00 | 0.00 | 9.91 | 64 | 1010.7 |
| 20260509192606 | 18 | 268 | 0.0 | 0.0 | 0.00 | 0.00 | 9.91 | 63 | 1010.7 |
| 20260509192106 | 18 | 335 | 0.0 | 0.0 | 0.00 | 0.00 | 9.91 | 62 | 1010.4 |
| 20260509191606 | 18 | 273 | 0.0 | 0.0 | 0.00 | 0.00 | 9.91 | 60 | 1010.6 |
| 20260509191106 | 18 | 274 | 0.0 | 0.0 | 0.00 | 0.00 | 9.91 | 61 | 1010.4 |
| 20260509190606 | 18 | 274 | 0.0 | 0.0 | 0.00 | 0.00 | 9.91 | 58 | 1010.6 |
| 20260509190106 | 18 | 261 | 0.0 | 0.0 | 0.00 | 0.00 | 9.91 | 58 | 1010.5 |
| 20260509185606 | 18 | 247 | 0.0 | 0.0 | 0.00 | 0.00 | 9.91 | 59 | 1010.5 |
| 20260509185106 | 18 | 299 | 0.0 | 0.0 | 0.00 | 0.00 | 9.91 | 56 | 1010.7 |
| 20260509184606 | 18 | 261 | 0.0 | 0.0 | 0.00 | 0.00 | 9.91 | 57 | 1010.4 |
| 20260509184106 | 19 | 282 | 0.0 | 0.0 | 0.00 | 0.00 | 9.91 | 56 | 1010.3 |
| 20260509183606 | 19 | 270 | 0.0 | 0.0 | 0.00 | 0.00 | 9.91 | 56 | 1010.3 |
| 20260509183106 | 19 | 260 | 0.0 | 0.0 | 0.00 | 0.00 | 9.91 | 57 | 1010.3 |
| 20260509182606 | 19 | 265 | 0.0 | 0.0 | 0.00 | 0.00 | 9.91 | 56 | 1010.1 |
| 20260509182106 | 19 | 317 | 0.0 | 0.0 | 0.00 | 0.00 | 9.91 | 57 | 1010.1 |
| 20260509181606 | 20 | 259 | 0.0 | 0.0 | 0.00 | 0.00 | 9.91 | 57 | 1010.1 |
| 20260509181106 | 20 | 290 | 0.0 | 0.0 | 0.00 | 0.00 | 9.91 | 57 | 1009.9 |
| 20260509180606 | 20 | 279 | 0.0 | 0.0 | 0.00 | 0.00 | 9.91 | 57 | 1009.9 |
| 20260509180105 | 20 | 288 | 0.0 | 0.0 | 0.00 | 0.00 | 9.91 | 56 | 1009.9 |
| 20260509175605 | 20 | 196 | 0.0 | 0.0 | 0.00 | 0.00 | 9.91 | 56 | 1009.9 |
| 20260509175105 | 20 | 287 | 0.0 | 0.0 | 0.00 | 0.00 | 9.91 | 55 | 1010.0 |
| 20260509174605 | 20 | 270 | 0.0 | 0.0 | 0.00 | 0.00 | 9.91 | 56 | 1010.1 |
| 20260509174105 | 20 | 313 | 0.0 | 0.0 | 0.00 | 0.00 | 9.91 | 52 | 1010.0 |
| 20260509173605 | 20 | 271 | 0.0 | 0.0 | 0.00 | 0.00 | 9.91 | 53 | 1010.2 |
| 20260509173105 | 20 | 256 | 0.0 | 0.0 | 0.00 | 0.00 | 9.91 | 51 | 1010.1 |
| 20260509172605 | 20 | 278 | 0.0 | 0.0 | 0.00 | 0.00 | 9.91 | 51 | 1010.1 |
| 20260509172105 | 20 | 254 | 0.0 | 0.0 | 0.00 | 0.00 | 9.91 | 50 | 1009.9 |
| 20260509171605 | 20 | 16 | 4.8 | 24.1 | 0.00 | 0.00 | 9.91 | 51 | 1010.0 |
| 20260509171105 | 21 | 290 | 0.0 | 0.0 | 0.00 | 0.00 | 9.91 | 50 | 1010.2 |
| 20260509170605 | 21 | 269 | 0.0 | 0.0 | 0.00 | 0.00 | 9.91 | 49 | 1010.2 |
| 20260509170105 | 21 | 282 | 0.0 | 0.0 | 0.00 | 0.00 | 9.91 | 48 | 1010.2 |
| 20260509165605 | 21 | 263 | 0.0 | 0.0 | 0.00 | 0.00 | 9.91 | 49 | 1010.2 |
| 20260509165105 | 21 | 28 | 0.0 | 0.0 | 0.00 | 0.00 | 9.91 | 47 | 1010.1 |
| 20260509164605 | 21 | 283 | 0.0 | 0.0 | 0.00 | 0.00 | 9.91 | 45 | 1010.1 |
| 20260509164105 | 21 | 273 | 0.0 | 0.0 | 0.00 | 0.00 | 9.91 | 45 | 1010.3 |
| 20260509163605 | 21 | 17 | 0.0 | 11.3 | 0.00 | 0.00 | 9.91 | 44 | 1010.1 |
| 20260509163105 | 21 | 359 | 0.0 | 11.3 | 0.00 | 0.00 | 9.91 | 43 | 1010.0 |
| 20260509162605 | 21 | 307 | 0.0 | 0.0 | 0.00 | 0.00 | 9.91 | 42 | 1010.2 |
| 20260509162104 | 21 | 299 | 0.0 | 0.0 | 0.00 | 0.00 | 9.91 | 42 | 1010.3 |
| 20260509161604 | 21 | 24 | 0.0 | 11.3 | 0.00 | 0.00 | 9.91 | 41 | 1010.2 |
| 20260509161104 | 21 | 283 | 0.0 | 0.0 | 0.00 | 0.00 | 9.91 | 43 | 1010.6 |
| 20260509160604 | 21 | 354 | 0.0 | 0.0 | 0.00 | 0.00 | 9.91 | 41 | 1010.4 |
| 20260509160104 | 21 | 311 | 0.0 | 0.0 | 0.00 | 0.00 | 9.91 | 43 | 1010.4 |
| 20260509155604 | 21 | 298 | 0.0 | 0.0 | 0.00 | 0.00 | 9.91 | 43 | 1010.6 |
| 20260509155104 | 21 | 44 | 8.0 | 11.3 | 0.00 | 0.00 | 9.91 | 42 | 1010.4 |
| 20260509154604 | 21 | 306 | 0.0 | 0.0 | 0.00 | 0.00 | 9.91 | 45 | 1010.5 |
| 20260509154104 | 22 | 255 | 0.0 | 0.0 | 0.00 | 0.00 | 9.91 | 42 | 1010.5 |
| 20260509153604 | 22 | 49 | 0.0 | 11.3 | 0.00 | 0.00 | 9.91 | 39 | 1010.6 |
| 20260509153104 | 22 | 283 | 0.0 | 0.0 | 0.00 | 0.00 | 9.91 | 41 | 1010.6 |
| 20260509152604 | 22 | 288 | 0.0 | 11.3 | 0.00 | 0.00 | 9.91 | 39 | 1010.8 |
| 20260509152104 | 23 | 258 | 0.0 | 11.3 | 0.00 | 0.00 | 9.91 | 38 | 1010.8 |
| 20260509151604 | 23 | 269 | 0.0 | 0.0 | 0.00 | 0.00 | 9.91 | 38 | 1010.8 |
| 20260509151104 | 23 | 22 | 0.0 | 0.0 | 0.00 | 0.00 | 9.91 | 40 | 1010.5 |
| 20260509150604 | 23 | 297 | 0.0 | 0.0 | 0.00 | 0.00 | 9.91 | 37 | 1011.0 |
| 20260509150104 | 23 | 258 | 0.0 | 11.3 | 0.00 | 0.00 | 9.91 | 34 | 1010.9 |
| 20260509145604 | 23 | 229 | 0.0 | 0.0 | 0.00 | 0.00 | 9.91 | 36 | 1010.9 |
| 20260509145104 | 23 | 229 | 0.0 | 0.0 | 0.00 | 0.00 | 9.91 | 36 | 1010.9 |
| 20260509144604 | 23 | 31 | 6.4 | 24.1 | 0.00 | 0.00 | 9.91 | 35 | 1010.9 |
| 20260509144104 | 23 | 288 | 1.6 | 11.3 | 0.00 | 0.00 | 9.91 | 36 | 1010.9 |
| 20260509143104 | 23 | 59 | 1.6 | 11.3 | 0.00 | 0.00 | 9.91 | 37 | 1011.5 |
| 20260509142604 | 23 | 67 | 4.8 | 11.3 | 0.00 | 0.00 | 9.91 | 39 | 1011.0 |
| 20260509142104 | 23 | 14 | 0.0 | 11.3 | 0.00 | 0.00 | 9.91 | 42 | 1011.1 |
| 20260509141603 | 23 | 48 | 4.8 | 11.3 | 0.00 | 0.00 | 9.91 | 43 | 1011.2 |
| 20260509141103 | 23 | 214 | 0.0 | 0.0 | 0.00 | 0.00 | 9.91 | 44 | 1011.3 |
| 20260509140603 | 23 | 32 | 0.0 | 0.0 | 0.00 | 0.00 | 9.91 | 44 | 1011.2 |
| 20260509140103 | 23 | 65 | 0.0 | 11.3 | 0.00 | 0.00 | 9.91 | 42 | 1011.4 |
| 20260509135603 | 23 | 61 | 0.0 | 11.3 | 0.00 | 0.00 | 9.91 | 46 | 1011.4 |
| 20260509135103 | 23 | 326 | 0.0 | 0.0 | 0.00 | 0.00 | 9.91 | 45 | 1011.5 |
| 20260509134603 | 23 | 38 | 0.0 | 11.3 | 0.00 | 0.00 | 9.91 | 44 | 1011.5 |
| 20260509134103 | 23 | 359 | 0.0 | 0.0 | 0.00 | 0.00 | 9.91 | 44 | 1011.5 |
| 20260509133603 | 23 | 251 | 0.0 | 0.0 | 0.00 | 0.00 | 9.91 | 43 | 1011.6 |
| 20260509133104 | 23 | 294 | 0.0 | 0.0 | 0.00 | 0.00 | 9.91 | 44 | 1011.5 |
| 20260509132603 | 23 | 56 | 0.0 | 11.3 | 0.00 | 0.00 | 9.91 | 42 | 1011.8 |
| 20260509132103 | 23 | 279 | 0.0 | 0.0 | 0.00 | 0.00 | 9.91 | 46 | 1011.7 |
| 20260509131603 | 23 | 6 | 0.0 | 0.0 | 0.00 | 0.00 | 9.91 | 43 | 1011.8 |
| 20260509131103 | 23 | 296 | 0.0 | 0.0 | 0.00 | 0.00 | 9.91 | 42 | 1012.0 |
| 20260509130603 | 23 | 33 | 1.6 | 11.3 | 0.00 | 0.00 | 9.91 | 43 | 1012.1 |
| 20260509125603 | 24 | 339 | 0.0 | 0.0 | 0.00 | 0.00 | 9.91 | 43 | 1011.8 |
| 20260509125103 | 25 | 274 | 0.0 | 0.0 | 0.00 | 0.00 | 9.91 | 42 | 1012.0 |
| 20260509124603 | 25 | 5 | 0.0 | 0.0 | 0.00 | 0.00 | 9.91 | 44 | 1012.0 |
| 20260509124103 | 25 | 285 | 6.4 | 11.3 | 0.00 | 0.00 | 9.91 | 44 | 1012.1 |
| 20260509123602 | 25 | 274 | 0.0 | 0.0 | 0.00 | 0.00 | 9.91 | 45 | 1012.1 |
| 20260509123102 | 25 | 285 | 0.0 | 11.3 | 0.00 | 0.00 | 9.91 | 43 | 1012.1 |
| 20260509122602 | 25 | 8 | 0.0 | 0.0 | 0.00 | 0.00 | 9.91 | 40 | 1012.1 |
| 20260509122102 | 25 | 224 | 0.0 | 0.0 | 0.00 | 0.00 | 9.91 | 40 | 1012.1 |
| 20260509121602 | 25 | 326 | 0.0 | 0.0 | 0.00 | 0.00 | 9.91 | 42 | 1012.2 |
| 20260509121102 | 25 | 342 | 4.8 | 11.3 | 0.00 | 0.00 | 9.91 | 42 | 1012.3 |
| 20260509120602 | 25 | 40 | 8.0 | 11.3 | 0.00 | 0.00 | 9.91 | 42 | 1012.2 |
| 20260509115603 | 24 | 123 | 0.0 | 0.0 | 0.00 | 0.00 | 9.91 | 40 | 1012.1 |
| 20260509115102 | 24 | 264 | 0.0 | 11.3 | 0.00 | 0.00 | 9.91 | 41 | 1012.3 |
| 20260509114602 | 24 | 70 | 11.3 | 24.1 | 0.00 | 0.00 | 9.91 | 38 | 1012.5 |
| 20260509114102 | 24 | 255 | 0.0 | 0.0 | 0.00 | 0.00 | 9.91 | 42 | 1012.5 |
| 20260509113602 | 24 | 322 | 4.8 | 11.3 | 0.00 | 0.00 | 9.91 | 38 | 1012.5 |
| 20260509113102 | 24 | 108 | 0.0 | 11.3 | 0.00 | 0.00 | 9.91 | 40 | 1012.6 |
| 20260509112602 | 24 | 229 | 0.0 | 0.0 | 0.00 | 0.00 | 9.91 | 42 | 1012.7 |
| 20260509112102 | 24 | 339 | 0.0 | 11.3 | 0.00 | 0.00 | 9.91 | 36 | 1012.7 |
| 20260509111602 | 23 | 280 | 0.0 | 0.0 | 0.00 | 0.00 | 9.91 | 38 | 1012.6 |
| 20260509111102 | 23 | 254 | 0.0 | 0.0 | 0.00 | 0.00 | 9.91 | 39 | 1012.8 |
| 20260509110601 | 23 | 21 | 0.0 | 11.3 | 0.00 | 0.00 | 9.91 | 41 | 1012.8 |
| 20260509105601 | 23 | 296 | 0.0 | 11.3 | 0.00 | 0.00 | 9.91 | 42 | 1012.9 |
| 20260509105101 | 23 | 33 | 0.0 | 0.0 | 0.00 | 0.00 | 9.91 | 38 | 1012.9 |
| 20260509104601 | 23 | 34 | 0.0 | 0.0 | 0.00 | 0.00 | 9.91 | 41 | 1012.8 |
| 20260509104101 | 23 | 270 | 0.0 | 0.0 | 0.00 | 0.00 | 9.91 | 40 | 1012.8 |
| 20260509103601 | 23 | 265 | 0.0 | 0.0 | 0.00 | 0.00 | 9.91 | 42 | 1012.9 |
| 20260509103101 | 22 | 298 | 1.6 | 11.3 | 0.00 | 0.00 | 9.91 | 40 | 1013.3 |
| 20260509102601 | 22 | 270 | 0.0 | 0.0 | 0.00 | 0.00 | 9.91 | 39 | 1013.1 |
| 20260509102101 | 22 | 267 | 0.0 | 0.0 | 0.00 | 0.00 | 9.91 | 43 | 1013.2 |
| 20260509101601 | 22 | 254 | 0.0 | 0.0 | 0.00 | 0.00 | 9.91 | 40 | 1013.3 |
| 20260509101101 | 22 | 335 | 0.0 | 0.0 | 0.00 | 0.00 | 9.91 | 41 | 1013.4 |
| 20260509100601 | 22 | 246 | 0.0 | 0.0 | 0.00 | 0.00 | 9.91 | 39 | 1013.4 |
| 20260509100101 | 22 | 289 | 0.0 | 0.0 | 0.00 | 0.00 | 9.91 | 40 | 1013.4 |
| 20260509095601 | 22 | 267 | 0.0 | 0.0 | 0.00 | 0.00 | 9.91 | 43 | 1013.4 |
| 20260509095101 | 21 | 303 | 0.0 | 0.0 | 0.00 | 0.00 | 9.91 | 48 | 1013.5 |
| 20260509094601 | 21 | 308 | 0.0 | 0.0 | 0.00 | 0.00 | 9.91 | 45 | 1013.5 |
| 20260509094101 | 21 | 279 | 0.0 | 0.0 | 0.00 | 0.00 | 9.91 | 50 | 1013.3 |
| 20260509093600 | 21 | 227 | 0.0 | 0.0 | 0.00 | 0.00 | 9.91 | 48 | 1013.3 |
| 20260509093100 | 21 | 243 | 0.0 | 0.0 | 0.00 | 0.00 | 9.91 | 49 | 1013.5 |
| 20260509092600 | 21 | 342 | 0.0 | 0.0 | 0.00 | 0.00 | 9.91 | 51 | 1013.6 |
| 20260509092100 | 21 | 355 | 0.0 | 0.0 | 0.00 | 0.00 | 9.91 | 47 | 1013.7 |
| 20260509091600 | 20 | 274 | 0.0 | 0.0 | 0.00 | 0.00 | 9.91 | 51 | 1013.7 |
| 20260509091100 | 20 | 248 | 0.0 | 0.0 | 0.00 | 0.00 | 9.91 | 56 | 1013.9 |
| 20260509090600 | 20 | 266 | 0.0 | 0.0 | 0.00 | 0.00 | 9.91 | 53 | 1014.0 |
| 20260509090100 | 20 | 328 | 0.0 | 0.0 | 0.00 | 0.00 | 9.91 | 52 | 1014.0 |
| 20260509085600 | 20 | 308 | 0.0 | 0.0 | 0.00 | 0.00 | 9.91 | 48 | 1014.0 |
| 20260509085100 | 20 | 297 | 0.0 | 0.0 | 0.00 | 0.00 | 9.91 | 52 | 1013.9 |
| 20260509084600 | 20 | 298 | 0.0 | 0.0 | 0.00 | 0.00 | 9.91 | 52 | 1014.1 |
| 20260509084100 | 20 | 298 | 0.0 | 0.0 | 0.00 | 0.00 | 9.91 | 52 | 1014.1 |
| 20260509083600 | 20 | 297 | 0.0 | 0.0 | 0.00 | 0.00 | 9.91 | 52 | 1014.1 |
| 20260509083100 | 19 | 350 | 0.0 | 0.0 | 0.00 | 0.00 | 9.91 | 52 | 1014.1 |
| 20260509082600 | 19 | 2 | 0.0 | 11.3 | 0.00 | 0.00 | 9.91 | 51 | 1014.1 |
| 20260509082100 | 19 | 356 | 0.0 | 0.0 | 0.00 | 0.00 | 9.91 | 49 | 1014.3 |
| 20260509081600 | 18 | 267 | 0.0 | 0.0 | 0.00 | 0.00 | 9.91 | 56 | 1014.4 |
| 20260509081100 | 18 | 267 | 0.0 | 0.0 | 0.00 | 0.00 | 9.91 | 48 | 1014.3 |
| 20260509080600 | 18 | 281 | 0.0 | 0.0 | 0.00 | 0.00 | 9.91 | 52 | 1014.2 |
| 20260509080100 | 17 | 240 | 0.0 | 0.0 | 0.00 | 0.00 | 9.91 | 56 | 1014.3 |
| 20260509075559 | 17 | 280 | 0.0 | 0.0 | 0.00 | 0.00 | 9.91 | 60 | 1014.3 |
| 20260509075059 | 16 | 279 | 0.0 | 0.0 | 0.00 | 0.00 | 9.91 | 60 | 1014.3 |
| 20260509074559 | 16 | 274 | 0.0 | 0.0 | 0.00 | 0.00 | 9.91 | 59 | 1014.1 |
| 20260509074059 | 16 | 292 | 0.0 | 0.0 | 0.00 | 0.00 | 9.91 | 68 | 1014.4 |
| 20260509073559 | 15 | 351 | 0.0 | 11.3 | 0.00 | 0.00 | 9.91 | 66 | 1014.4 |
| 20260509073059 | 15 | 251 | 0.0 | 0.0 | 0.00 | 0.00 | 9.91 | 74 | 1014.5 |
| 20260509072559 | 15 | 268 | 0.0 | 0.0 | 0.00 | 0.00 | 9.91 | 76 | 1014.5 |
| 20260509072059 | 14 | 252 | 0.0 | 0.0 | 0.00 | 0.00 | 9.91 | 77 | 1014.4 |
| 20260509071559 | 13 | 259 | 0.0 | 0.0 | 0.00 | 0.00 | 9.91 | 80 | 1014.2 |
| 20260509071059 | 13 | 239 | 0.0 | 0.0 | 0.00 | 0.00 | 9.91 | 80 | 1014.3 |
| 20260509070559 | 12 | 245 | 0.0 | 0.0 | 0.00 | 0.00 | 9.91 | 82 | 1014.5 |
| 20260509070059 | 12 | 256 | 0.0 | 0.0 | 0.00 | 0.00 | 9.91 | 85 | 1014.8 |